This demonstration page uses our WeatherBlox Daily Observations layout. Learn more.

Left ArrowRight Arrow

Hourly Observations for June 28, 2020

Temp ( °F °C ) Dew Point ( °F °C ) Humidity (%) Winds ( mph kmh ) Pressure ( in mb ) Visibility ( mi km ) Precip ( " mm )
12:53 am 00:53 Clear 80 26.7 56 13.3 44 44 N 9 15 29.74 1007 10 16 0.00 0.00
1:53 am 01:53 Clear 77 25 57 13.9 50 50 ENE 5 7 29.70 1006 10 16 0.00 0.00
2:53 am 02:53 Clear 79 26.1 60 15.6 52 52 ESE 10 17 29.65 1004 10 16 0.00 0.00
3:53 am 03:53 Clear 77 25 61 16.1 58 58 SSW 6 9 29.63 1004 10 16 0.00 0.00
4:53 am 04:53 Clear 76 24.4 59 15 56 56 Calm 29.64 1004 10 16 0.00 0.00
5:53 am 05:53 Clear 76 24.4 60 15.6 58 58 Calm 29.64 1004 10 16 0.00 0.00
6:53 am 06:53 Sunny 74 23.3 60 15.6 62 62 SSE 6 9 29.66 1004 10 16 0.00 0.00
7:53 am 07:53 Mostly Sunny 74 23.3 61 16.1 64 64 SSE 6 9 29.67 1005 10 16 0.00 0.00
8:53 am 08:53 Sunny 79 26.1 59 15 50 50 S 8 13 29.67 1005 10 16 0.00 0.00
9:53 am 09:53 Sunny 82 27.8 56 13.3 41 41 SSW 8 13 29.67 1005 10 16 0.00 0.00
10:53 am 10:53 Sunny 85 29.4 53 11.7 33 33 SSW 13 20 29.65 1004 10 16 0.00 0.00
11:53 am 11:53 Sunny 86 30 53 11.7 32 32 SSW 12 19 29.64 1004 10 16 0.00 0.00
12:53 pm 12:53 Sunny 89 31.7 49 9.4 25 25 SSW 7 11 29.62 1003 10 16 0.00 0.00
1:53 pm 13:53 Sunny 91 32.8 50 10 25 25 Calm 29.60 1002 10 16 0.00 0.00
2:53 pm 14:53 Sunny 96 35.6 48 8.9 19 19 undefined N/A 29.57 1001 10 16 0.00 0.00
3:53 pm 15:53 Sunny 99 37.2 45 7.2 16 16 SE 6 9 29.54 1001 10 16 0.00 0.00
4:53 pm 16:53 Sunny 98 36.7 45 7.2 16 16 S 6 9 29.53 1000 10 16 0.00 0.00
5:53 pm 17:53 Sunny 100 37.8 43 6.1 14 14 SW 13 20 29.51 999 10 16 0.00 0.00
6:53 pm 18:53 Sunny 98 36.7 43 6.1 15 15 SSW 10 17 29.51 999 10 16 0.00 0.00
7:53 pm 19:53 Sunny 96 35.6 43 6.1 16 16 WSW 9 15 29.51 999 10 16 0.00 0.00
8:53 pm 20:53 Sunny 90 32.2 47 8.3 23 23 S 7 11 29.51 999 10 16 0.00 0.00
9:53 pm 21:53 undefined 89 31.7 48 8.9 24 24 WSW 7 11 29.54 1001 10 16 0.00 0.00
10:53 pm 22:53 Clear 89 31.7 45 7.2 22 22 W 9 15 29.57 1001 10 16 0.00 0.00
11:53 pm 23:53 Clear 82 27.8 57 13.9 42 42 SE 6 9 29.60 1002 10 16 0.00 0.00

Powered by AerisWeather